Track COSMOS 1171 now! 10-day predictions COSMOS 1171 is classified as:
1 11750U 80026A 24325.91171480 -.00000054 00000-0 27992-4 0 9990 2 11750 65.8419 84.8485 0028392 230.8364 217.4889 13.73753104239047